Satellite: NOAA-11
Catalog number: 19531
Epoch time:      10112.30497748
Element set:      51
Inclination:      098.7670 deg
RA of node:       202.2796 deg
Eccentricity:    0.0011093
Arg of perigee:   311.3627 deg
Mean anomaly:     048.6617 deg
Mean motion:   14.14922372 rev/day
Decay rate:        9.1e-07 rev/day^2
Epoch rev:           11323
Checksum:              274

Satellite: NOAA-12
Catalog number: 21263
Epoch time:      10112.41446647
Element set:     537
Inclination:      098.7662 deg
RA of node:       125.5791 deg
Eccentricity:    0.0012041
Arg of perigee:   333.3584 deg
Mean anomaly:     026.6975 deg
Mean motion:   14.25629726 rev/day
Decay rate:       1.04e-06 rev/day^2
Epoch rev:           98445
Checksum:              302

Satellite: MET-3/5
Catalog number: 21655
Epoch time:      10111.65939722
Element set:     792
Inclination:      082.5595 deg
RA of node:       348.5796 deg
Eccentricity:    0.0014441
Arg of perigee:   126.5814 deg
Mean anomaly:     233.6603 deg
Mean motion:   13.17021868 rev/day
Decay rate:        5.1e-07 rev/day^2
Epoch rev:           89823
Checksum:              316

Satellite: MET-2/21
Catalog number: 22782
Epoch time:      10112.75469577
Element set:     755
Inclination:      082.5450 deg
RA of node:       296.4251 deg
Eccentricity:    0.0021903
Arg of perigee:   194.4716 deg
Mean anomaly:     165.5824 deg
Mean motion:   13.83643401 rev/day
Decay rate:        2.0e-07 rev/day^2
Epoch rev:           84041
Checksum:              292

Satellite: OKEAN-4
Catalog number: 23317
Epoch time:      10112.85242553
Element set:     211
Inclination:      082.5414 deg
RA of node:       045.5035 deg
Eccentricity:    0.0024009
Arg of perigee:   065.6949 deg
Mean anomaly:     294.6786 deg
Mean motion:   14.82802827 rev/day
Decay rate:       3.08e-06 rev/day^2
Epoch rev:           83825
Checksum:              294

Satellite: NOAA-14
Catalog number: 23455
Epoch time:      10112.44486789
Element set:      29
Inclination:      098.8786 deg
RA of node:       193.5713 deg
Eccentricity:    0.0010034
Arg of perigee:   038.2196 deg
Mean anomaly:     321.9682 deg
Mean motion:   14.13784227 rev/day
Decay rate:        2.9e-07 rev/day^2
Epoch rev:           78962
Checksum:              326

Satellite: NOAA-15
Catalog number: 25338
Epoch time:      10112.18552472
Element set:     349
Inclination:      098.6166 deg
RA of node:       100.1255 deg
Eccentricity:    0.0009743
Arg of perigee:   235.1354 deg
Mean anomaly:     124.8894 deg
Mean motion:   14.24819428 rev/day
Decay rate:        7.5e-07 rev/day^2
Epoch rev:           62077
Checksum:              302

Satellite: RESURS
Catalog number: 25394
Epoch time:      10112.63564032
Element set:     484
Inclination:      098.3086 deg
RA of node:       133.7314 deg
Eccentricity:    0.0002212
Arg of perigee:   047.3177 deg
Mean anomaly:     312.8183 deg
Mean motion:   14.24198885 rev/day
Decay rate:       -1.1e-07 rev/day^2
Epoch rev:           61244
Checksum:              271

Satellite: FENGYUN1
Catalog number: 25730
Epoch time:      10111.89068518
Element set:      24
Inclination:      098.7843 deg
RA of node:       078.3143 deg
Eccentricity:    0.0024952
Arg of perigee:   066.1291 deg
Mean anomaly:     294.2516 deg
Mean motion:   14.08222223 rev/day
Decay rate:       2.51e-06 rev/day^2
Epoch rev:           56376
Checksum:              284

Satellite: OKEAN-0
Catalog number: 25860
Epoch time:      10112.39832843
Element set:     972
Inclination:      097.8280 deg
RA of node:       087.0086 deg
Eccentricity:    0.0000577
Arg of perigee:   072.0044 deg
Mean anomaly:     288.1235 deg
Mean motion:   14.73632603 rev/day
Decay rate:        5.7e-07 rev/day^2
Epoch rev:           57868
Checksum:              304

Satellite: NOAA-16
Catalog number: 26536
Epoch time:      10112.26861727
Element set:     826
Inclination:      099.1730 deg
RA of node:       128.4138 deg
Eccentricity:    0.0011281
Arg of perigee:   131.3885 deg
Mean anomaly:     228.8267 deg
Mean motion:   14.12553195 rev/day
Decay rate:      -2.22e-06 rev/day^2
Epoch rev:           49393
Checksum:              303

Satellite: NOAA-17
Catalog number: 27453
Epoch time:      10112.35264654
Element set:     830
Inclination:      098.4358 deg
RA of node:       165.0300 deg
Eccentricity:    0.0010838
Arg of perigee:   303.2246 deg
Mean anomaly:     056.7893 deg
Mean motion:   14.24150187 rev/day
Decay rate:       -2.8e-07 rev/day^2
Epoch rev:           40675
Checksum:              287

Satellite: NOAA-18
Catalog number: 28654
Epoch time:      10112.43646172
Element set:     314
Inclination:      098.9468 deg
RA of node:       058.8732 deg
Eccentricity:    0.0013765
Arg of perigee:   207.7581 deg
Mean anomaly:     152.2858 deg
Mean motion:   14.11346989 rev/day
Decay rate:      -1.76e-06 rev/day^2
Epoch rev:           25357
Checksum:              333

Satellite: NOAA-19
Catalog number: 33591
Epoch time:      10112.41240394
Element set:     513
Inclination:      098.7849 deg
RA of node:       055.7284 deg
Eccentricity:    0.0015159
Arg of perigee:   087.2933 deg
Mean anomaly:     272.9975 deg
Mean motion:   14.11043816 rev/day
Decay rate:        6.0e-08 rev/day^2
Epoch rev:            6204
Checksum:              301

/EX
SB KEPS @ AMSAT  $ORB10112.M
Orbital Elements  10112.MISC

HR AMSAT ORBITAL ELEMENTS FOR MANNED AND MISCELLANEOUS SATELLITES
FROM WA5QGD FORT WORTH,TX April 22, 2010
Send Subscribe/unsubscribe to KEPS at http://www.amsat.org/mailman/listinfo/keps
BID: ORB10112.M
TO ALL RADIO AMATEURS BT

Satellite: HUBBLE
Catalog number: 20580
Epoch time:      10110.59790984
Element set:     553
Inclination:      028.4707 deg
RA of node:       255.8109 deg
Eccentricity:    0.0003219
Arg of perigee:   312.8116 deg
Mean anomaly:     047.2138 deg
Mean motion:   15.00954638 rev/day
Decay rate:       5.46e-06 rev/day^2
Epoch rev:           89609
Checksum:              299

Satellite: ISS
Catalog number: 25544
Epoch time:      10113.00621263
Element set:      25
Inclination:      051.6471 deg
RA of node:       153.7726 deg
Eccentricity:    0.0003214
Arg of perigee:   195.6601 deg
Mean anomaly:     237.1721 deg
Mean motion:   15.75128884 rev/day
Decay rate:     2.5402e-04 rev/day^2
Epoch rev:           65478
Checksum:              268

Satellite: CO-58
Catalog number: 28895
Epoch time:      10112.67044317
Element set:     564
Inclination:      098.0238 deg
RA of node:       358.9648 deg
Eccentricity:    0.0019423
Arg of perigee:   100.2381 deg
Mean anomaly:     260.1026 deg
Mean motion:   14.59878004 rev/day
Decay rate:        8.3e-07 rev/day^2
Epoch rev:           23888
Checksum:              318

Satellite: FALCON
Catalog number: 30776
Epoch time:      10112.10783684
Element set:     811
Inclination:      035.4339 deg
RA of node:       024.7464 deg
Eccentricity:    0.0000726
Arg of perigee:   358.5805 deg
Mean anomaly:     001.4909 deg
Mean motion:   15.03606723 rev/day
Decay rate:       8.63e-06 rev/day^2
Epoch rev:           17161
Checksum:              276

Satellite: MAST
Catalog number: 31126
Epoch time:      10112.67124242
Element set:     847
Inclination:      097.9424 deg
RA of node:       157.5380 deg
Eccentricity:    0.0095717
Arg of perigee:   039.1867 deg
Mean anomaly:     321.6197 deg
Mean motion:   14.53577249 rev/day
Decay rate:        8.7e-07 rev/day^2
Epoch rev:           15999
Checksum:              326

Satellite: CAPE1
Catalog number: 31130
Epoch time:      10112.04898588
Element set:     867
Inclination:      097.9454 deg
RA of node:       154.4706 deg
Eccentricity:    0.0104122
Arg of perigee:   048.6935 deg
Mean anomaly:     312.3137 deg
Mean motion:   14.52166297 rev/day
Decay rate:       4.02e-06 rev/day^2
Epoch rev:           15951
Checksum:              294

Satellite: COMPASS
Catalog number: 32787
Epoch time:      10111.71887753
Element set:     651
Inclination:      097.8978 deg
RA of node:       177.2419 deg
Eccentricity:    0.0016996
Arg of perigee:   107.7577 deg
Mean anomaly:     252.5501 deg
Mean motion:   14.81833471 rev/day
Decay rate:       1.34e-06 rev/day^2
Epoch rev:           10713
Checksum:              322

Satellite: AAUSAT2
Catalog number: 32788
Epoch time:      10112.13245443
Element set:     645
Inclination:      097.8991 deg
RA of node:       177.7652 deg
Eccentricity:    0.0016769
Arg of perigee:   107.0888 deg
Mean anomaly:     253.2213 deg
Mean motion:   14.81973506 rev/day
Decay rate:       1.43e-06 rev/day^2
Epoch rev:           10720
Checksum:              304

Satellite: DO-64
Catalog number: 32789
Epoch time:      10112.68638221
Element set:     662
Inclination:      097.9041 deg
RA of node:       178.7245 deg
Eccentricity:    0.0016777
Arg of perigee:   104.5495 deg
Mean anomaly:     255.7583 deg
Mean motion:   14.82090192 rev/day
Decay rate:      1.052e-05 rev/day^2
Epoch rev:           10728
Checksum:              320

Satellite: CO-66
Catalog number: 32791
Epoch time:      10112.67820081
Element set:     643
Inclination:      097.8987 deg
RA of node:       178.2097 deg
Eccentricity:    0.0017214
Arg of perigee:   102.8555 deg
Mean anomaly:     257.4579 deg
Mean motion:   14.81629076 rev/day
Decay rate:       5.82e-06 rev/day^2
Epoch rev:           10723
Checksum:              328

Satellite: RS-30
Catalog number: 32953
Epoch time:      10112.83303179
Element set:     625
Inclination:      082.5005 deg
RA of node:       064.0950 deg
Eccentricity:    0.0017419
Arg of perigee:   221.1712 deg
Mean anomaly:     138.8054 deg
Mean motion:   12.43004828 rev/day
Decay rate:        1.0e-07 rev/day^2
Epoch rev:            8686
Checksum:              260

